Regional Weather Roundup
Issued by NWS Mobile, AL

Home | Current Version | Previous Version | Text Only | Print | Product List | Glossary On
Versions: 1 2 3 4 5 6 7 8 9 10 11 12 13 14 15 16 17 18 19 20 21 22 23 24 25 26 27 28 29 30 31 32 33 34 35 36 37 38 39 40 41 42 43 44 45 46 47 48 49 50
250
ASUS44 KMOB 240912
RWRMOB
REGIONAL WEATHER ROUNDUP
NATIONAL WEATHER SERVICE MOBILE AL
300 AM CST FRI FEB 24 2017

NOTE: "FAIR" INDICATES FEW OR NO CLOUDS BELOW 12,000 FEET WITH NO
      SIGNIFICANT WEATHER AND/OR OBSTRUCTIONS TO VISIBILITY.

  * THESE STATIONS ARE PART OF THE UNIVERSITY OF SOUTH ALABAMA
    MESONET AND ARE NOT UNDER NWS OR FAA QUALITY CONTROL.

ALZ061>064-241000-
COASTAL ALABAMA

CITY           SKY/WX    TMP DP  RH WIND       PRES   REMARKS
MOBILE REG APT FOG       61  60  97 CALM      29.81S VSB 1/4
BROOKLEY FIELD FOG       60  60 100 CALM      29.82S VSB 1/4
USA CAMPUS*    NOT AVBL
DOG RIVER*     NOT AVBL


CITY           SKY/WX    TMP DP  RH WIND       PRES   REMARKS
GULF SHORES    FOG       54  54 100 CALM      29.80S VSB 1/4

$$

ALZ051>060-241000-
INTERIOR SOUTHWEST AND SOUTH CENTRAL ALABAMA

CITY           SKY/WX    TMP DP  RH WIND       PRES   REMARKS
GREENVILLE     PTCLDY    54  50  86 CALM      29.81S
EVERGREEN      FOG       54  53  97 CALM      29.82S VSB 1/4
ATMORE*        NOT AVBL
ANDALUSIA/OPP  CLEAR     57  53  86 CALM      29.82R
ANDALUSIA*     NOT AVBL
FLORALA APT    PTCLDY    57  55  93 CALM      29.84R
FLORALA*       NOT AVBL

$$

FLZ001>006-241000-
WESTERN FLORIDA PANHANDLE

CITY           SKY/WX    TMP DP  RH WIND       PRES   REMARKS
PENSACOLA      FOG       60  58  92 E3        29.79F VSB 1/4
NAS PENSACOLA  FOG       57  56  96 CALM      29.79F VSB 1/4
MILTON         LGT RAIN  56  56 100 E3        29.80F VSB 1/2
WHTNG S FIELD  FOG       60  58  92 E3        29.80F VSB 1/4


CITY           SKY/WX    TMP DP  RH WIND       PRES   REMARKS
JAY*           NOT AVBL
DUKE FIELD     FOG       54  54 100 CALM      29.81R VSB 3/4
CRESTVIEW      FOG       55  54  96 CALM      29.83S VSB 1/4
VALPARAISO     PTCLDY    57  57  99 CALM      29.82R FOG
DESTIN         CLEAR     64  64 100 CALM      29.81S

$$

MSZ076-079-241000-
INTERIOR SOUTHEAST MISSISSIPPI

CITY           SKY/WX    TMP DP  RH WIND       PRES   REMARKS
LEAKESVILLE*   NOT AVBL
AGRICOLA*      NOT AVBL

$$

MARINE OBSERVATIONS

STATION/POSITION TIME  TEMP    WIND        PRES    WAVE
                       AIR SEA DIR/SP/G            HT/PER
                 (UTC) (F)     (DEG/KT/KT) (MB)    (FT/S)
PASCAGOULA       0848   66     190/  5/  7 1008.6F
PETIT BOIS ISLND 0848   66     190/  6/  7 1009.4F
GRAND BAY        0745   67     190/  9     1010.0S
KATRINA CUT      0830          220/  8     1008.8S
CEDAR POINT      0830   67     220/  6     1008.8F
E DAUPHIN ISLAND 0800   66     180/  6/  7 1008.5F
MIDDLE BAY LIGHT 0830   65     100/  1     1008.8F
USCG MOBILE BAY  0848   60 66  280/  2/  4 1009.9R
STATE DOCKS      0848   61 63              1009.2R
MEAHER PARK      0830   62     100/  1     1009.5S
WEEKS BAY        0745   57                   N/A
FORT MORGAN      0848   66     210/  4/  5   N/A
12 S ORANGE BCH  0850   67 68  160/  6/  6 1008.7F   1/ 5
PENSACOLA BAY    0848   63 67   CALM  /  1 1009.1F
67 S FORT MORGAN 0830   68     180/  8     1009.1S

$$

SELECTED LOCATIONS ACROSS THE REGION

CITY           SKY/WX    TMP DP  RH WIND       PRES   REMARKS
NEW ORLEANS    CLOUDY    66  64  93 SE7       29.77F
GULFPORT       CLEAR     66  64  93 S6        29.77F
PASCAGOULA AP  FOG       53  51  93 CALM      29.79F VSB 1/2
PASCAGOULA*    NOT AVBL
HATTIESBURG    CLOUDY    62  61  96 S5        29.80R
LAUREL         CLOUDY    59  55  88 S8        29.80S VSB 3/4
MERIDIAN       CLEAR     56  55  97 CALM      29.79R
JACKSON        MOCLDY    61  58  90 S6        29.76R
MONTGOMERY     CLEAR     59  53  80 E3        29.82S
TROY           PTCLDY    59  56  89 CALM      29.84R
ASHFORD*       NOT AVBL
DOTHAN         CLEAR     60  58  92 E5        29.87S
PANAMA CITY    CLEAR     56  55  97 CALM      29.81F

$$





USA.gov is the U.S. government's official web portal to all federal, state and local government web resources and services.